Regional Weather Roundup
Issued by NWS Upton, NY

Current Version | Previous Version | Graphics & Text | Print | Product List | Glossary Off
Versions: 1 2 3 4 5 6 7 8 9 10 11 12 13 14 15 16 17 18 19 20 21 22 23 24 25 26 27 28 29 30 31 32 33 34 35 36 37 38 39 40 41 42 43 44 45 46 47 48 49 50

000
ASUS41 KOKX 300308
RWROKX

REGIONAL WEATHER ROUNDUP
NATIONAL WEATHER SERVICE NEW YORK NY
1100 PM EDT WED JUL 29 2015

NOTE: "FAIR" INDICATES FEW OR NO CLOUDS BELOW 12,000 FEET WITH NO
SIGNIFICANT WEATHER AND/OR OBSTRUCTIONS TO VISIBILITY.

NYZ071-072-176-178-NJZ106-104-300400-
NEW YORK CITY METRO AREA


CITY           SKY/WX    TMP DP  RH WIND       PRES   REMARKS
CENTRAL PARK   CLEAR     84  70  62 VRB6      29.95F
LAGUARDIA APRT PTCLDY    85  70  60 SW10      29.92S
KENNEDY INTL   PTCLDY    82  71  69 SW12      29.94S
NEWARK/LIBERTY PTCLDY    84  72  67 SW14G22   29.92S
BRNX BOT. GARD   N/A     84  70  61 S2        29.95R
TETERBORO      CLEAR     85  70  60 SW10      29.91S
$$

NYZ177-179-078>081-300400-
LONG ISLAND NEW YORK

CITY           SKY/WX    TMP DP  RH WIND       PRES   REMARKS
FARMINGDALE    CLEAR     82  73  74 SW9       29.94S
ISLIP          PTCLDY    79  73  82 SW8       29.92F
SHIRLEY        CLEAR     79  73  82 S7        29.95S
WESTHAMPTON    CLEAR     78  73  84 SW7       29.96S
MONTAUK POINT    N/A     78  73  84 SW8G17    29.95S
$$

NYZ052-065-067-300400-
HUDSON VALLEY

CITY           SKY/WX    TMP DP  RH WIND       PRES   REMARKS
WHITE PLAINS   CLEAR     76  71  85 CALM      29.93F
NEWBURGH       CLEAR     79  66  65 CALM      29.94S
MONTGOMERY     CLEAR     73  67  81 SW3       29.92F
POUGHKEEPSIE   CLEAR     74  68  81 CALM      29.90F
ALBANY         CLEAR     77  65  66 CALM      29.89S
$$

NJZ001-105-106-008-010-013-015-019>022-104-300400-
NEW JERSEY

CITY           SKY/WX    TMP DP  RH WIND       PRES   REMARKS
NEWARK/LIBERTY PTCLDY    84  72  67 SW14G22   29.92S
TETERBORO      CLEAR     85  70  60 SW10      29.91S
CALDWELL       CLEAR     82  69  64 CALM      29.93S
MORRISTOWN     CLEAR     81  70  69 SW3       29.93F
SOMERVILLE     CLEAR     79  71  76 S3        29.92S
SUSSEX         CLEAR     72  68  87 CALM      29.95S
ANDOVER          N/A     72  70  93 CALM      29.96S
TRENTON        CLEAR     79  71  76 VRB6      29.94F
MILLVILLE      PTCLDY    78  74  87 CALM      29.97S
ATLANTIC CITY  CLEAR     78  72  81 S7        29.97F
WRIGHTSTOWN    CLEAR     75  72  91 S2        29.93F
TOMS RIVER       N/A     75  72  88 S3        29.97F
BELMAR         CLEAR     79  68  69 SW7       29.96F
$$

PAZ047>061-062-071-300400-
EASTERN PENNSYLVANIA

CITY           SKY/WX    TMP DP  RH WIND       PRES   REMARKS
PHILADELPHIA   MOCLDY    82  73  74 S8        29.95F
ALLENTOWN      CLEAR     80  71  74 SW9       29.95S
SCRANTON       CLEAR     78  67  68 SW5       29.96R
$$

CTZ002-004>006-009-010-012-RIZ004-006-007-MAZ004-011-015-300400-
SOUTHERN NEW ENGLAND
 IN CT

CITY           SKY/WX    TMP DP  RH WIND       PRES   REMARKS
BRADLEY INTL   CLEAR     78  67  68 S6        29.90F
HARTFORD       CLEAR     79  68  69 CALM      29.91F
DANBURY        CLEAR     77  67  71 CALM      29.95S
WTRBRY/OXFORD  CLEAR     75  64  69 CALM      29.97S
BRIDGEPORT     CLEAR     80  72  76 S6        29.92F
MERIDEN        CLEAR     75  67  76 CALM      29.92F
NEW HAVEN      CLEAR     79  71  76 S7        29.93S
CHESTER        FAIR      75  70  83 SW5       29.95F
GROTON         CLEAR     74  69  85 CALM      29.93S
WILLIMANTIC    CLEAR     78  67  68 SW3       29.93S

 IN RI

CITY           SKY/WX    TMP DP  RH WIND       PRES   REMARKS
PROVIDENCE     PTCLDY    79  68  69 SW9       29.92S
BLOCK ISLAND     N/A     73  72  94 SW14      29.95S
WESTERLY       CLEAR     75  70  84 VRB3      29.94S

 IN MA

CITY           SKY/WX    TMP DP  RH WIND       PRES   REMARKS
BOSTON         CLEAR     83  67  58 W12       29.89S
WORCESTER      CLEAR     75  65  70 W9        29.95F
WESTFIELD      CLEAR     73  68  84 SE3       29.91S
PROVINCETOWN   CLEAR     73  64  73 SW9       29.90S
NANTUCKET      MOCLDY    72  70  93 SW7       29.94S FOG
$$

ANZ330-335-338-340-345-350-353-355-300400-
COASTAL MARINE OBSERVATIONS


STATION/POSITION TIME  SKY/WX   TEMP    WIND        PRES    VSBY  WAVE
                                AIR SEA DIR/SP/G                  HT/PER
                 (UTC)          (F)     (DEG/KT/KT) (MB)    (MI)  (FT/S)
NY HARB ENTRANCE 0250            78 77  220/ 14/ 16 1013.4          3/ 4
4S FIRE IS       NOT AVBL
20S FIRE ISLAND  0250            76 74  220/ 12/ 14 1013.9          3/ 4
GREAT SOUTH BAY  0215            79 81  250/ 14/ 17   N/A
23SW MTP         0250            76 75  230/ 14/ 16 1013.7          4/10
HUDSON CANYON    NOT AVBL
KINGS POINT      0200            81 70                N/A
EXECUTION ROCKS  0200            79     200/  4/  6   N/A
CENTRAL LI SOUND NOT AVBL
EASTERN LI SOUND 0200            72 69  290/  2/  4   N/A
ROBBINS REEF     0200            84                   N/A
$$


>>>>>>>>>>>>>>>>>>>>>>>>>>>> KEY <<<<<<<<<<<<<<<<<<<<<<<<<<<
>                                                          <
>     SKY/WX - SKY CONDITION/PRESENT WEATHER               <
>     TMP    - TEMPERATURE IN FAHRENHEIT                   <
>     DP     - DEWPOINT IN FAHRENHEIT                      <
>     RH     - RELATIVE HUMIDITY IN PERCENT                <
>     WIND   - DIRECTION AND SPEED IN MPH                  <
>     PRES   - MEAN SEA LEVEL PRESSURE IN INCHES OF HG     <
>     WCI    - WIND CHILL INDEX                            <
>     VSB    - VISIBILITY IN MILES                         <
>     HX     - HEAT INDEX                                  <
>     TC     - TEMPERATURE IN CELSIUS                      <
>     VRB    - VARIABLE WIND DIRECTION                     <
>                                                          <
>>>>>>>>>>>>>>>>>>>>>>>>>>>> KEY <<<<<<<<<<<<<<<<<<<<<<<<<<<





USA.gov is the U.S. government's official web portal to all federal, state and local government web resources and services.